Location: Wald
(31.7579°N, 86.6655°W)
Time: 19:59:10
(UTC+00:00)

Cosmos 2173 Rocket - Pass Details

Date: 14 July 2020
Orbit: 944 x 1002 km, 83.0° (Epoch: 13 August)

Event Time Altitude Azimuth Distance (km) Brightness Sun altitude
Exits shadow 06:56:53 59° 31° (NNE) 1,144 4.4 -34.5°
Drops below altitude 10° 07:01:59 10° 10° (N) 2,756 7.2 -34.1°
Sets 07:04:30 0° 9° (N) 3,700 8.0 -33.9°
